Tracking 29892 objects as of 21-Nov-2024
HD Live streaming from Space Station
objects crossing your sky now

BLOCK DM-SL R/B

Track BLOCK DM-SL R/B now!


NORAD ID: 38750
Int'l Code: 2012-045B
Perigee: 282.4 km
Apogee: 33,160.6 km
Inclination: 0.6 °
Period: 582.1 minutes
Semi major axis: 23092 km
RCS: 23.2639 m2 (large)
Launch date: August 19, 2012
Source: Sea Launch (SEAL)
Launch site: SEA LAUNCH (SEAL)

Note: This is a ROCKET BODY
Your satellite tracking list
Your tracking list is empty




NASA's NSSDC Master Catalog

Two Line Element Set (TLE):
1 38750U 12045B   24325.54947004  .00002462  00000-0  10321-2 0  9997
2 38750   0.6251  14.5206 7118793  97.6202 333.3932  2.47398205106596
Source of the keplerian elements: AFSPC